Regional Weather Roundup
Issued by NWS

Home | Current Version | Previous Version | Graphics & Text | Print | Product List | Glossary On
Versions: 1 2 3 4 5 6 7 8 9 10 11 12 13 14 15 16 17 18 19 20 21 22 23 24 25 26 27 28 29 30 31 32 33 34 35 36 37 38 39 40 41 42 43 44 45 46 47 48 49 50
000
ASUS43 KLMK 162002
RWRKY
KENTUCKY REGIONAL WEATHER ROUNDUP
NATIONAL WEATHER SERVICE LOUISVILLE KY
400 PM EDT TUE SEP 16 2014

NOTE "FAIR" INDICATES FEW OR NO CLOUDS BELOW 12,000 FEET
WITH NO SIGNIFICANT WEATHER AND/OR OBSTRUCTIONS TO VISIBILITY.

KYZ001>023-026-027-061>063-070>075-162100-
WESTERN AND SOUTH CENTRAL KENTUCKY

CITY           SKY/WX    TMP DP  RH WIND       PRES   REMARKS
PADUCAH        MOSUNNY   72  55  55 N10       30.12F
HENDERSON      CLOUDY    64  52  63 N8        30.13F
OWENSBORO      PTSUNNY   68  55  62 N10       30.12F
HOPKINSVILLE   PTSUNNY   69  57  67 N9        30.11F
BOWLING GREEN  CLOUDY    71  56  58 NE6       30.09F
GLASGOW        MOSUNNY   73  56  55 N6        30.09F
$$

KYZ024-025-028>034-038-045-046-053-162100-
NORTH CENTRAL KENTUCKY

CITY           SKY/WX    TMP DP  RH WIND       PRES   REMARKS
LOUISVILLE/SDF PTSUNNY   66  55  67 N10       30.10F
LOUISVILLE/LOU MOSUNNY   67  54  63 N9        30.11F
FORT KNOX      MOSUNNY   68  56  64 NW6       30.09F
$$

KYZ035>037-039>044-047>052-055>060-089>105-162100-
NORTHEAST KENTUCKY

CITY           SKY/WX    TMP DP  RH WIND       PRES   REMARKS
LEXINGTON      MOSUNNY   70  56  61 NE5       30.10F
COVINGTON      CLOUDY    61  50  67 N6        30.13F
FRANKFORT      PTSUNNY   66  54  65 N7        30.10F
$$

KYZ054-064>069-076>088-106>120-162100-
SOUTHEAST KENTUCKY

CITY           SKY/WX    TMP DP  RH WIND       PRES   REMARKS
JACKSON        CLOUDY    61  58  90 CALM      30.10S
LONDON         PTSUNNY   72  58  61 NW7       30.08F
SOMERSET       NOT AVBL
MIDDLESBORO    LGT RAIN  70  64  80 NW9       30.08F
MONTICELLO     MOCLDY    73  59  61 VRB3      30.10F
$$



USA.gov is the U.S. government's official web portal to all federal, state and local government web resources and services.